Time,TemperatureF,DewpointF,PressureIn,WindDirection,WindDirectionDegrees,WindSpeedMPH,WindSpeedGustMPH,Humidity,HourlyPrecipIn,Conditions,Clouds,dailyrainin,SoftwareType,DateUTC
2013-04-15 00:03:00,54.0,42.0,-100.00,ESE,115,7.0,14.0,63,0.00,,,-99.99,,2013-04-15 04:03:00,
2013-04-15 00:13:00,54.0,42.0,-100.00,ESE,120,9.0,12.0,62,0.00,,,-99.99,,2013-04-15 04:13:00,
2013-04-15 00:23:00,54.0,42.0,-100.00,SE,125,8.0,12.0,62,0.00,,,-99.99,,2013-04-15 04:23:00,
2013-04-15 00:33:00,54.0,42.0,-100.00,ESE,120,7.0,11.0,63,0.00,,,-99.99,,2013-04-15 04:33:00,
2013-04-15 00:43:00,53.0,42.0,-100.00,SE,130,8.0,9.0,65,0.00,,,-99.99,,2013-04-15 04:43:00,
2013-04-15 00:52:00,54.0,42.0,-100.00,SE,125,9.0,11.0,63,0.00,,,-99.99,,2013-04-15 04:52:00,
2013-04-15 01:03:00,54.0,42.0,-100.00,SE,130,9.0,12.0,63,0.00,,,-99.99,,2013-04-15 05:03:00,
2013-04-15 01:12:00,54.0,42.0,-100.00,SE,125,11.0,14.0,62,0.00,,,-99.99,,2013-04-15 05:12:00,
2013-04-15 01:23:00,54.0,41.0,-100.00,SE,125,10.0,12.0,61,0.00,,,-99.99,,2013-04-15 05:23:00,
2013-04-15 01:33:00,54.0,41.0,-100.00,SE,140,10.0,13.0,63,0.00,,,-99.99,,2013-04-15 05:33:00,
2013-04-15 01:42:00,55.0,41.0,-100.00,SE,135,12.0,14.0,59,0.00,,,-99.99,,2013-04-15 05:42:00,
2013-04-15 01:52:00,55.0,41.0,-100.00,SE,140,11.0,16.0,59,0.00,,,-99.99,,2013-04-15 05:52:00,
2013-04-15 02:02:00,53.0,42.0,-100.00,SE,140,7.0,12.0,64,0.00,,,-99.99,,2013-04-15 06:02:00,
2013-04-15 02:12:00,54.0,41.0,-100.00,SSE,160,6.0,9.0,61,0.00,,,-99.99,,2013-04-15 06:12:00,
2013-04-15 02:23:00,53.0,42.0,-100.00,SSE,160,4.0,9.0,65,0.00,,,-99.99,,2013-04-15 06:23:00,
2013-04-15 02:33:00,53.0,41.0,-100.00,SE,145,7.0,9.0,63,0.00,,,-99.99,,2013-04-15 06:33:00,
2013-04-15 02:42:00,53.0,41.0,-100.00,South,170,4.0,8.0,63,0.00,,,-99.99,,2013-04-15 06:42:00,
2013-04-15 02:52:00,53.0,41.0,-100.00,SSE,165,6.0,9.0,63,0.00,,,-99.99,,2013-04-15 06:52:00,
2013-04-15 03:03:00,52.0,41.0,-100.00,SSE,165,5.0,9.0,65,0.00,,,-99.99,,2013-04-15 07:03:00,
2013-04-15 03:41:00,53.0,41.0,-100.00,SSE,165,4.0,7.0,64,0.00,,,-99.99,,2013-04-15 07:41:00,
2013-04-15 03:42:00,53.0,41.0,-100.00,SSE,160,4.0,7.0,65,0.00,,,-99.99,,2013-04-15 07:42:00,
2013-04-15 03:43:00,53.0,41.0,-100.00,South,170,3.0,9.0,65,0.00,,,-99.99,,2013-04-15 07:43:00,
2013-04-15 03:53:00,52.0,41.0,-100.00,SSE,165,2.0,4.0,67,0.00,,,-99.99,,2013-04-15 07:53:00,
2013-04-15 04:03:00,52.0,42.0,-100.00,South,170,6.0,8.0,67,0.00,,,-99.99,,2013-04-15 08:03:00,
2013-04-15 04:13:00,52.0,42.0,-100.00,South,170,6.0,8.0,67,0.00,,,-99.99,,2013-04-15 08:13:00,
2013-04-15 04:22:00,52.0,42.0,-100.00,South,170,7.0,8.0,67,0.00,,,-99.99,,2013-04-15 08:22:00,
2013-04-15 04:42:00,55.0,42.0,-100.00,South,170,10.0,16.0,62,0.00,,,-99.99,,2013-04-15 08:42:00,
2013-04-15 04:52:00,54.0,42.0,-100.00,South,170,8.0,16.0,63,0.00,,,-99.99,,2013-04-15 08:52:00,
2013-04-15 05:03:00,53.0,42.0,-100.00,South,170,5.0,9.0,66,0.00,,,-99.99,,2013-04-15 09:03:00,
2013-04-15 05:12:00,53.0,42.0,-100.00,SSE,165,6.0,9.0,67,0.00,,,-99.99,,2013-04-15 09:12:00,
2013-04-15 05:23:00,52.0,42.0,-100.00,South,170,4.0,7.0,67,0.00,,,-99.99,,2013-04-15 09:23:00,
2013-04-15 05:33:00,53.0,42.0,-100.00,South,170,7.0,11.0,65,0.00,,,-99.99,,2013-04-15 09:33:00,
2013-04-15 05:43:00,53.0,42.0,-100.00,SSW,195,4.0,7.0,65,0.00,,,-99.99,,2013-04-15 09:43:00,
2013-04-15 05:53:00,52.0,42.0,-100.00,South,185,4.0,7.0,67,0.00,,,-99.99,,2013-04-15 09:53:00,
2013-04-15 06:03:00,52.0,42.0,-100.00,South,180,5.0,8.0,68,0.00,,,-99.99,,2013-04-15 10:03:00,
2013-04-15 06:13:00,51.0,42.0,-100.00,South,180,4.0,9.0,69,0.00,,,-99.99,,2013-04-15 10:13:00,
2013-04-15 06:23:00,52.0,42.0,-100.00,South,170,4.0,6.0,70,0.00,,,-99.99,,2013-04-15 10:23:00,
2013-04-15 06:33:00,52.0,42.0,-100.00,South,170,4.0,6.0,70,0.00,,,-99.99,,2013-04-15 10:33:00,
2013-04-15 06:42:00,52.0,43.0,-100.00,South,170,3.0,6.0,71,0.00,,,-99.99,,2013-04-15 10:42:00,
2013-04-15 06:52:00,50.0,44.0,-100.00,South,170,4.0,6.0,79,0.00,,,-99.99,,2013-04-15 10:52:00,
2013-04-15 07:03:00,51.0,44.0,-100.00,South,190,4.0,6.0,75,0.00,,,-99.99,,2013-04-15 11:03:00,
2013-04-15 07:12:00,51.0,44.0,-100.00,South,170,4.0,7.0,77,0.00,,,-99.99,,2013-04-15 11:12:00,
2013-04-15 07:23:00,50.0,44.0,-100.00,SSE,160,4.0,7.0,80,0.00,,,-99.99,,2013-04-15 11:23:00,
2013-04-15 07:32:00,51.0,45.0,-100.00,South,180,6.0,10.0,78,0.00,,,-99.99,,2013-04-15 11:32:00,
2013-04-15 07:43:00,52.0,45.0,-100.00,South,175,6.0,9.0,76,0.00,,,-99.99,,2013-04-15 11:43:00,
2013-04-15 07:53:00,52.0,45.0,-100.00,South,175,6.0,9.0,76,0.00,,,-99.99,,2013-04-15 11:53:00,
2013-04-15 08:04:00,53.0,46.0,-100.00,South,170,4.0,9.0,77,0.00,,,-99.99,,2013-04-15 12:04:00,
2013-04-15 08:14:00,53.0,46.0,-100.00,South,170,7.0,11.0,75,0.00,,,-99.99,,2013-04-15 12:14:00,
2013-04-15 08:23:00,53.0,47.0,-100.00,SE,145,6.0,9.0,79,0.00,,,-99.99,,2013-04-15 12:23:00,
2013-04-15 08:34:00,54.0,47.0,-100.00,SSE,155,5.0,9.0,77,0.00,,,-99.99,,2013-04-15 12:34:00,
2013-04-15 08:43:00,55.0,47.0,-100.00,SE,145,8.0,10.0,77,0.00,,,-99.99,,2013-04-15 12:43:00,
2013-04-15 09:04:00,55.0,48.0,-100.00,SSE,150,8.0,12.0,76,0.00,,,-99.99,,2013-04-15 13:04:00,
2013-04-15 09:13:00,56.0,48.0,-100.00,SSE,165,6.0,12.0,73,0.00,,,-99.99,,2013-04-15 13:13:00,
2013-04-15 09:23:00,57.0,48.0,-100.00,SSE,165,7.0,11.0,72,0.00,,,-99.99,,2013-04-15 13:23:00,
2013-04-15 09:34:00,58.0,49.0,-100.00,SSE,165,7.0,12.0,71,0.00,,,-99.99,,2013-04-15 13:34:00,
2013-04-15 09:43:00,59.0,48.0,-100.00,South,180,9.0,17.0,67,0.00,,,-99.99,,2013-04-15 13:43:00,
2013-04-15 09:53:00,59.0,48.0,-100.00,South,180,10.0,22.0,66,0.00,,,-99.99,,2013-04-15 13:53:00,
2013-04-15 10:05:00,60.0,48.0,-100.00,South,175,11.0,19.0,66,0.00,,,-99.99,,2013-04-15 14:05:00,
2013-04-15 10:13:00,61.0,50.0,-100.00,South,170,8.0,16.0,67,0.00,,,-99.99,,2013-04-15 14:13:00,
2013-04-15 10:22:00,60.0,49.0,-100.00,South,170,12.0,19.0,66,0.00,,,-99.99,,2013-04-15 14:22:00,
2013-04-15 10:33:00,61.0,49.0,-100.00,South,170,10.0,16.0,64,0.00,,,-99.99,,2013-04-15 14:33:00,
2013-04-15 10:44:00,61.0,49.0,-100.00,South,170,12.0,19.0,64,0.00,,,-99.99,,2013-04-15 14:44:00,
2013-04-15 10:54:00,61.0,48.0,-100.00,SSW,195,12.0,22.0,63,0.00,,,-99.99,,2013-04-15 14:54:00,
2013-04-15 11:04:00,60.0,49.0,-100.00,South,170,11.0,17.0,65,0.00,,,-99.99,,2013-04-15 15:04:00,
2013-04-15 11:13:00,62.0,49.0,-100.00,South,170,10.0,16.0,62,0.00,,,-99.99,,2013-04-15 15:13:00,
2013-04-15 11:24:00,63.0,49.0,-100.00,SSW,200,11.0,16.0,60,0.00,,,-99.99,,2013-04-15 15:24:00,
2013-04-15 11:35:00,62.0,50.0,-100.00,South,180,10.0,18.0,64,0.00,,,-99.99,,2013-04-15 15:35:00,
2013-04-15 11:44:00,62.0,49.0,-100.00,South,175,11.0,17.0,64,0.00,,,-99.99,,2013-04-15 15:44:00,
2013-04-15 11:53:00,62.0,49.0,-100.00,South,185,13.0,17.0,63,0.00,,,-99.99,,2013-04-15 15:53:00,
2013-04-15 12:05:00,63.0,51.0,-100.00,South,170,12.0,19.0,63,0.00,,,-99.99,,2013-04-15 16:05:00,
2013-04-15 12:13:00,64.0,52.0,-100.00,South,175,11.0,19.0,65,0.00,,,-99.99,,2013-04-15 16:13:00,
2013-04-15 12:24:00,63.0,51.0,-100.00,South,170,11.0,19.0,65,0.00,,,-99.99,,2013-04-15 16:24:00,
2013-04-15 12:34:00,63.0,50.0,-100.00,South,180,10.0,25.0,63,0.00,,,-99.99,,2013-04-15 16:34:00,
2013-04-15 12:44:00,65.0,52.0,-100.00,SSW,195,9.0,19.0,63,0.00,,,-99.99,,2013-04-15 16:44:00,
2013-04-15 12:53:00,64.0,52.0,-100.00,SSE,165,11.0,17.0,65,0.00,,,-99.99,,2013-04-15 16:53:00,
2013-04-15 13:04:00,65.0,50.0,-100.00,SSW,195,12.0,17.0,58,0.00,,,-99.99,,2013-04-15 17:04:00,
2013-04-15 13:15:00,65.0,52.0,-100.00,SSE,160,11.0,18.0,64,0.00,,,-99.99,,2013-04-15 17:15:00,
2013-04-15 13:22:00,65.0,51.0,-100.00,South,170,11.0,22.0,59,0.00,,,-99.99,,2013-04-15 17:22:00,
2013-04-15 13:33:00,65.0,51.0,-100.00,South,170,16.0,21.0,61,0.00,,,-99.99,,2013-04-15 17:33:00,
2013-04-15 13:43:00,65.0,52.0,-100.00,SSE,155,11.0,21.0,62,0.00,,,-99.99,,2013-04-15 17:43:00,
2013-04-15 13:52:00,65.0,52.0,-100.00,SSE,165,9.0,19.0,64,0.00,,,-99.99,,2013-04-15 17:52:00,
2013-04-15 14:03:00,65.0,51.0,-100.00,South,185,9.0,19.0,61,0.00,,,-99.99,,2013-04-15 18:03:00,
2013-04-15 14:13:00,65.0,51.0,-100.00,South,170,10.0,17.0,60,0.00,,,-99.99,,2013-04-15 18:13:00,
2013-04-15 14:24:00,65.0,52.0,-100.00,South,170,9.0,16.0,60,0.00,,,-99.99,,2013-04-15 18:24:00,
2013-04-15 14:33:00,66.0,52.0,-100.00,South,185,11.0,19.0,59,0.00,,,-99.99,,2013-04-15 18:33:00,
2013-04-15 14:42:00,66.0,51.0,-100.00,South,170,12.0,19.0,57,0.00,,,-99.99,,2013-04-15 18:42:00,
2013-04-15 14:52:00,65.0,51.0,-100.00,South,170,12.0,19.0,60,0.00,,,-99.99,,2013-04-15 18:52:00,
2013-04-15 15:02:00,65.0,51.0,-100.00,South,170,11.0,18.0,59,0.00,,,-99.99,,2013-04-15 19:02:00,
2013-04-15 15:12:00,66.0,52.0,-100.00,SSE,165,9.0,17.0,60,0.00,,,-99.99,,2013-04-15 19:12:00,
2013-04-15 15:22:00,66.0,51.0,-100.00,South,175,8.0,17.0,58,0.00,,,-99.99,,2013-04-15 19:22:00,
2013-04-15 15:53:00,67.0,51.0,-100.00,South,180,12.0,24.0,57,0.00,,,-99.99,,2013-04-15 19:53:00,
2013-04-15 15:59:00,67.0,52.0,-100.00,SSE,155,11.0,16.0,59,0.00,,,-99.99,,2013-04-15 19:59:00,
2013-04-15 16:02:00,67.0,52.0,-100.00,SSE,165,12.0,20.0,58,0.00,,,-99.99,,2013-04-15 20:02:00,
2013-04-15 16:11:00,67.0,52.0,-100.00,SSE,160,12.0,24.0,57,0.00,,,-99.99,,2013-04-15 20:11:00,
2013-04-15 16:22:00,67.0,51.0,-100.00,South,175,17.0,24.0,56,0.00,,,-99.99,,2013-04-15 20:22:00,
2013-04-15 16:32:00,68.0,53.0,-100.00,South,170,11.0,23.0,58,0.00,,,-99.99,,2013-04-15 20:32:00,
2013-04-15 16:42:00,67.0,51.0,-100.00,South,170,14.0,21.0,55,0.00,,,-99.99,,2013-04-15 20:42:00,
2013-04-15 16:52:00,67.0,51.0,-100.00,South,170,11.0,21.0,57,0.00,,,-99.99,,2013-04-15 20:52:00,
2013-04-15 17:02:00,67.0,51.0,-100.00,SSE,160,11.0,17.0,57,0.00,,,-99.99,,2013-04-15 21:02:00,
2013-04-15 17:12:00,67.0,52.0,-100.00,South,170,8.0,16.0,58,0.00,,,-99.99,,2013-04-15 21:12:00,
2013-04-15 17:22:00,66.0,51.0,-100.00,SSE,160,14.0,21.0,57,0.00,,,-99.99,,2013-04-15 21:22:00,
2013-04-15 17:33:00,66.0,51.0,-100.00,South,170,16.0,22.0,57,0.00,,,-99.99,,2013-04-15 21:33:00,
2013-04-15 17:43:00,67.0,51.0,-100.00,South,170,12.0,22.0,58,0.00,,,-99.99,,2013-04-15 21:43:00,
2013-04-15 17:53:00,67.0,51.0,-100.00,South,175,15.0,23.0,58,0.00,,,-99.99,,2013-04-15 21:53:00,
2013-04-15 18:02:00,66.0,52.0,-100.00,South,190,15.0,19.0,59,0.00,,,-99.99,,2013-04-15 22:02:00,
2013-04-15 18:13:00,66.0,52.0,-100.00,South,175,12.0,21.0,60,0.00,,,-99.99,,2013-04-15 22:13:00,
2013-04-15 18:23:00,65.0,53.0,-100.00,SSE,165,9.0,20.0,63,0.00,,,-99.99,,2013-04-15 22:23:00,
2013-04-15 18:33:00,65.0,52.0,-100.00,South,170,15.0,22.0,61,0.00,,,-99.99,,2013-04-15 22:33:00,
2013-04-15 18:42:00,65.0,53.0,-100.00,SSE,155,11.0,19.0,65,0.00,,,-99.99,,2013-04-15 22:42:00,
2013-04-15 18:52:00,65.0,52.0,-100.00,SSE,165,13.0,22.0,62,0.00,,,-99.99,,2013-04-15 22:52:00,
2013-04-15 19:02:00,65.0,52.0,-100.00,South,180,12.0,21.0,62,0.00,,,-99.99,,2013-04-15 23:02:00,
2013-04-15 19:12:00,65.0,52.0,-100.00,SSE,165,12.0,21.0,63,0.00,,,-99.99,,2013-04-15 23:12:00,
2013-04-15 19:22:00,64.0,53.0,-100.00,SE,145,17.0,21.0,66,0.00,,,-99.99,,2013-04-15 23:22:00,
2013-04-15 19:32:00,64.0,52.0,-100.00,SSE,160,11.0,22.0,64,0.00,,,-99.99,,2013-04-15 23:32:00,
2013-04-15 19:42:00,64.0,52.0,-100.00,SSE,160,11.0,17.0,65,0.00,,,-99.99,,2013-04-15 23:42:00,
2013-04-15 19:52:00,64.0,52.0,-100.00,SSE,155,13.0,19.0,65,0.00,,,-99.99,,2013-04-15 23:52:00,
2013-04-15 20:02:00,64.0,52.0,-100.00,SSE,155,12.0,19.0,64,0.00,,,-99.99,,2013-04-16 00:02:00,
2013-04-15 20:12:00,64.0,52.0,-100.00,SSE,165,12.0,17.0,66,0.00,,,-99.99,,2013-04-16 00:12:00,
2013-04-15 20:22:00,63.0,53.0,-100.00,SSE,165,10.0,16.0,68,0.00,,,-99.99,,2013-04-16 00:22:00,
2013-04-15 20:32:00,63.0,52.0,-100.00,SSE,165,9.0,16.0,67,0.00,,,-99.99,,2013-04-16 00:32:00,
2013-04-15 20:42:00,63.0,52.0,-100.00,South,170,10.0,16.0,67,0.00,,,-99.99,,2013-04-16 00:42:00,
2013-04-15 20:52:00,63.0,52.0,-100.00,South,170,9.0,17.0,67,0.00,,,-99.99,,2013-04-16 00:52:00,
2013-04-15 21:02:00,63.0,52.0,-100.00,South,170,10.0,16.0,67,0.00,,,-99.99,,2013-04-16 01:02:00,
2013-04-15 21:12:00,62.0,52.0,-100.00,South,170,9.0,14.0,69,0.00,,,-99.99,,2013-04-16 01:12:00,
2013-04-15 21:22:00,62.0,52.0,-100.00,South,170,11.0,14.0,69,0.00,,,-99.99,,2013-04-16 01:22:00,
2013-04-15 21:32:00,62.0,52.0,-100.00,South,175,9.0,13.0,69,0.00,,,-99.99,,2013-04-16 01:32:00,
2013-04-15 21:42:00,62.0,52.0,-100.00,South,170,9.0,14.0,70,0.00,,,-99.99,,2013-04-16 01:42:00,
2013-04-15 21:52:00,62.0,52.0,-100.00,South,170,9.0,12.0,70,0.00,,,-99.99,,2013-04-16 01:52:00,
2013-04-15 22:02:00,62.0,52.0,-100.00,South,170,9.0,12.0,70,0.00,,,-99.99,,2013-04-16 02:02:00,
2013-04-15 22:12:00,62.0,52.0,-100.00,South,170,7.0,11.0,70,0.00,,,-99.99,,2013-04-16 02:12:00,
2013-04-15 22:22:00,60.0,52.0,-100.00,SSE,165,4.0,9.0,75,0.00,,,-99.99,,2013-04-16 02:22:00,
2013-04-15 22:32:00,60.0,52.0,-100.00,SSE,160,3.0,7.0,76,0.00,,,-99.99,,2013-04-16 02:32:00,
2013-04-15 22:42:00,60.0,53.0,-100.00,SSE,160,3.0,9.0,75,0.00,,,-99.99,,2013-04-16 02:42:00,
2013-04-15 22:52:00,60.0,52.0,-100.00,South,180,6.0,10.0,76,0.00,,,-99.99,,2013-04-16 02:52:00,
2013-04-15 23:02:00,60.0,52.0,-100.00,SSE,150,4.0,7.0,75,0.00,,,-99.99,,2013-04-16 03:02:00,
2013-04-15 23:12:00,61.0,52.0,-100.00,SSW,195,6.0,11.0,73,0.00,,,-99.99,,2013-04-16 03:12:00,
2013-04-15 23:22:00,60.0,52.0,-100.00,SSE,160,4.0,9.0,74,0.00,,,-99.99,,2013-04-16 03:22:00,
2013-04-15 23:33:00,60.0,53.0,-100.00,South,170,7.0,9.0,77,0.00,,,-99.99,,2013-04-16 03:33:00,
2013-04-15 23:43:00,60.0,52.0,-100.00,SSE,160,4.0,12.0,75,0.00,,,-99.99,,2013-04-16 03:43:00,
2013-04-15 23:52:00,60.0,52.0,-100.00,SSE,150,4.0,6.0,77,0.00,,,-99.99,,2013-04-16 03:52:00,